Location: Laguna de la Cañada del Gallo
(40.3974°N, 5.2096°W)
Time: 12:33:58
(UTC+00:00)

Iridium 4 Rocket - Pass Details

Date: 18 April 2024
Orbit: 581 x 896 km, 86.9° (Epoch: 26 May)

Event Time Altitude Azimuth Distance (km) Brightness Sun altitude
Exits shadow 20:44:28 29° 146° (SE) 1,471 4.4 -18.3°
Maximum altitude 20:46:59 52° 86° (E) 1,056 3.9 -18.7°
Drops below altitude 10° 20:52:34 10° 12° (NNE) 2,551 6.5 -19.6°
Sets 20:55:07 0° 8° (N) 3,512 7.3 -20.0°
